星链-2025 (STARLINK-2025 )

导读

STARLINK-2025是美国星链计划中的卫星,于北京时间2021年2月4日发射。星链项目旨在构建全球卫星互联网星座,该卫星入轨后承担为地面用户提供低延迟宽带互联网接入服务的任务,属于低轨卫星,可助力补全球域网络覆盖盲区,服务偏远地区以及各类移动互联场景。

基本信息
目录编号:
47607
目录名称:
STARLINK-2025
国际标识:
2021-009BM
轨道中心:
EARTH
卫星名称:
星链-2025
卫星全名:
星链-2025 (STARLINK-2025 )
卫星状态:
已陨落 最后检测时间 2025-03-25
发射日期:
2021-02-04 UTC
国别 :
美国 (US)
星等 :
--
该卫星已列入 空间交会检测服务 Space Conjunction Data Service (SCDS) ,当前飞行风险评估等级: 无高风险
轨道信息
数据来源 国际轨道数据
星历时间: 2025-03-25T09:17:20+0800
轨道信息已过期535天
半长轴: 6529.402km
偏心率: 0.0002513
轨道倾角: 53.015°
近地点辐角 320.020°
升交点赤经 87.508°
平近点角 142.203°
近地点: 149.626km
远地点: 152.908km
周期: 87.512分钟
每日圈数: 16.454804
详细信息
固有亮度:
5
最大亮度:
2.5
卫星平台:
Starlink V1.0
覆盖范围:
全球
运营商:
太空探索技术公司
运营商所在国:
美国
制造商(研发单位):
太空探索技术公司
制造商所在国:
美国
使用方式:
暂无
卫星简介
星链(Starlink)计划是由太空探索技术公司(SpaceX)提出的一个巨型低轨卫星互联网星座项目,计划在2019年至2024年间在太空搭建由约1.2万颗卫星组成的“星链”网络,其中1584颗将部署在地球上空550千米处的近地轨道,并从2020年开始工作。该卫星仍在工作。
与全量物体交会距离演化趋势
与全量物体交会风险概率演化趋势